www.pogodaiklimat.ru

Погода и климат >> Архив погоды >> Лаос >> Attapeu


ПОГОДА в Attapeu

  • Прогноз погоды в Attapeu
  • Монитор погоды в Attapeu
  • Климат города

АРХИВ ПОГОДЫ в Attapeu

Время (UTC), дата Ветер
(напр.,м/с)
 
Видим.   Явления Облачность Т
(С)
Тd
(С)
f
(%)
Тe
(С)
Тes
(С)
Комфортность P
(гПа)
Po
(гПа)
Тmin
(С)
Tmax
(С)
R
(мм)
R24
(мм)
S
(см)
03 14.10 С 1 8000 м мгла {туман} 8/5 600 м
[Cu med, cong Ac lent Ci sp]
+28.5 +23.7 75 +39 +45 очень
душно
1006.4 995.8
06 14.10 З 1 8000 м мгла {туман} 8/5 600 м
[Cu med, cong Ac lent Ci sp]
+32.2 +24.5 64 +45 +52 опасность
перегрева
1003.6 993.1
09 14.10 Ю 1 8000 м мгла {туман} 8/5 600 м
[Cu med, cong Ac lent Ci sp]
+32.5 +25.9 68 +48 +49 опасность
перегрева
1000.8 990.6
12 14.10 Ю 1 4000 м дымка {туман} 9/6 600 м
[Cu Sc Ac As]
+29.0 +26.2 85 +44 +44 опасность
перегрева
1002.5 992.0 +33.0
03 15.10 С 2 12 км 6/4 600 м
[Cu med, cong Ac trans Ci sp]
+27.5 +24.3 83 +39 +45 очень
душно
1006.5 995.8
06 15.10 С 2 15 км 5/4 600 м
[Cu med, cong Ci sp]
+31.5 +22.6 59 +41 +51 опасность
перегрева
1003.6 993.1
09 15.10 ЮЗ 2 12 км 8/5 600 м
[Cu med, cong Ac lent Ci sp]
+31.7 +24.3 65 +44 +45 опасность
перегрева
1001.9 991.4
00 16.10 штиль 0 8000 м дымка 6/4 600 м
[Cu med, cong Ac trans Ci sp]
+25.3 +24.2 94 +35 +36 очень
душно
1006.1 995.4 +25.0
03 16.10 Ю 1 10 км 9/6 600 м
[Cu Sc Ac As]
+29.0 +24.8 78 +41 +45 опасность
перегрева
1006.9 996.2
06 16.10 З 1 10 км 9/6 600 м
[Cu Sc Ac As]
+31.0 +25.4 72 +45 +49 опасность
перегрева
1004.5 993.9
09 16.10 штиль 0 8000 м мгла {туман} 10/8 600 м
[Cu Sc Ac As]
+30.5 +24.8 72 +44 +44 опасность
перегрева
1003.3 992.8
12 16.10 штиль 0 3000 м дымка {туман} 9/6 600 м
[Cu Sc Ac As]
+27.0 +24.9 88 +39 +39 очень
душно
1005.3 994.6 +31.0
00 17.10 штиль 0 8000 м дымка 10/8 600 м
[Cu Sc Ac As]
+24.0 +22.5 91 +31 +31 очень
душно
1007.2 996.3 +23.7 5
03 17.10 штиль 0 12 км 10/8 600 м
[Cu Sc Ac As]
+25.6 +23.2 87 +34 +35 очень
душно
1009.7 998.9
06 17.10 С 1 15 км 5/4 600 м
[Cu med, cong Ac trans Ci fib]
+30.0 +24.2 71 +42 +52 опасность
перегрева
1006.7 996.1
09 17.10 С 1 17 км 6/4 600 м
[Cu med, cong Ac trans Ci sp]
+30.4 +23.6 67 +41 +43 опасность
перегрева
1004.2 993.6
12 17.10 штиль 0 3000 м дымка {туман} 9/6 600 м
[Cu Sc Ac As]
+28.2 +24.3 79 +39 +39 очень
душно
1006.0 995.4 +30.7
00 18.10 штиль 0 15 км 6/4 600 м
[Cu med, cong Ac trans Ci sp]
+25.4 +23.4 89 +34 +35 очень
душно
1008.5 997.8 +25.0
03 18.10 СЗ 1 15 км 5/4 600 м
[Cu med, cong Ci sp]
+29.5 +23.8 71 +40 +50 очень
душно
1009.4 998.8
06 18.10 СЗ 1 18 км 5/4 600 м
[Cu med, cong Ci sp]
+31.0 +23.8 66 +43 +54 опасность
перегрева
1006.6 996.1
09 18.10 С 2 10 км 9/6 600 м
[Cu Sc Ac As]
+29.8 +23.8 70 +41 +42 опасность
перегрева
1005.1 994.6
12 18.10 С 2 4000 м дымка {туман} 10/8 600 м
[Cu Sc Ac As]
+27.5 +26.1 92 +41 +41 опасность
перегрева
1006.0 995.4 +30.0
00 19.10 С 1 6000 м дымка 10/8 600 м
[Cu Sc Ac As]
+24.5 +22.3 88 +32 +32 очень
душно
1008.6 997.8 +24.0
03 19.10 СВ 1 10 км 10/8 600 м
[Cu Sc Ac As]
+26.4 +23.5 84 +36 +37 очень
душно
1009.3 998.6
06 19.10 С 1 15 км 8/5 600 м
[Cu med, cong Ac lent Ci sp]
+30.5 +24.5 70 +43 +49 опасность
перегрева
1006.9 996.3
09 19.10 штиль 0 15 км 8/5 600 м
[Cu med, cong Ac lent Ci sp]
+32.5 +24.7 64 +46 +47 опасность
перегрева
1004.6 994.2
12 19.10 С 1 3000 м дымка {туман} 8/5 600 м
[Cu med, cong Ac lent Ci sp]
+28.0 +24.4 81 +39 +39 очень
душно
1006.3 995.6 +32.5
00 20.10 С 1 15 км 3/3 600 м
[Cu hum Ci fib]
+24.5 +21.7 84 +31 +32 очень
душно
1009.3 998.5 +24.5
06 20.10 С 1 15 км 5/4 600 м
[Cu med, cong Ci sp]
+32.5 +23.9 61 +44 +55 опасность
перегрева
1008.3 997.6
09 20.10 С 1 18 км 3/3 600 м
[Cu hum Ci fib]
+33.5 +24.3 59 +46 +49 опасность
перегрева
1006.2 995.6
12 20.10 штиль 0 3000 м дымка {туман} 8/5 600 м
[Cu med, cong Ac lent Ci sp]
+29.5 +23.8 71 +40 +40 очень
душно
1007.8 997.1 +33.5
00 21.10 штиль 0 10 км 9/6 600 м
[Cu Sc Ac As]
+24.0 +22.5 91 +31 +32 очень
душно
1008.9 997.9 +23.7

 

Местоположение метеостанции Attapeu (Лаос): широта 14.80 долгота 106.83 высота над уровнем моря 105 м.

В архиве по умолчанию представлена погода в Attapeu за последнюю неделю. Архивные данные за месяц целиком и за предыдущие месяцы, начиная с января 2011 года, Вы можете получить, выбрав интересующий диапазон дат из раскрывающегося списка и нажав кнопку "Ввод!".

Внимание! Время в таблицах - всемирное. Для получения местного времени необходимо прибавить поправку, которая в Attapeu равна 7 ч.

Смотрите также архив погоды в соседних городах и на ближайших метеорологических станциях:

Погода в Sekong (Лаос) (61 км)
Погода в Saravane (Лаос) (107 км)
Погода в Pakse (Лаос) (118 км)
Погода в Pleiku City (Вьетнам) (156 км)
Погода в Hue (Вьетнам) (198 км)
Погода в Quang Ngai (Вьетнам) (213 км)
Погода в Da Nang (Вьетнам) (216 км)
Погода в Ubon Ratchathani (Таиланд) (217 км)
Погода в Banmethuot (Вьетнам) (272 км)
Погода в Si Saket Agromet (Таиланд) (278 км)

Пояснения к столбцам:

Ветер - указаны скорость ветра в м/с - средняя за 10 мин, порывы в срок и между сроками (в фигурных скобках) и направление, откуда дует ветер: С - северный, СВ - северо-восточный, В - восточный, ЮВ - юго-восточный, Ю - южный, ЮЗ - юго-западный, З - западный, СЗ - северо-западный.
Видимость - горизонтальная дальность видимости в метрах или километрах. При видимости от 1 до 10 км при отсутствии осадков обычно наблюдается дымка, при ухудшении видимости до 1 км и менее - туман. В сухую погоду видимость может ухудшаться дымом, пылью или мглою.
Явления - указаны атмосферные явления, наблюдавшиеся в срок или в последний час перед сроком; фигурными скобками обозначены явления, наблюдавшиеся между сроками (за 1-3 часа до срока); квадратными скобками обозначены град или гололедные отложения с указанием их диаметра в мм.
Облачность - указаны через наклонную черту общая и нижняя облачность в баллах и высота нижней границы облаков в метрах; квадратными скобками обозначены формы облаков: Ci - перистые, Cs - перисто-слоистые, Cc - перисто-кучевые, Ac - высококучевые, As - высокослоистые, Sc - слоисто-кучевые, Ns - слоисто-дождевые, Cu - кучевые, Cb - кучево-дождевые. Подробнее классификацию облаков см. в Атласе облаков (PDF).
T - Температура воздуха - температура, измеренная на высоте 2 м над землей.
Td - Температура точки росы - температура, при понижении до которой содержащийся в воздухе водяной пар достигнет насыщения.
f - Относительная влажность воздуха - влажноcть воздуха, измеренная на высоте 2 м над землей.
Te - Эффективная температура - температура, которую ощущает одетый по сезону человек в тени. Характеристика душности погоды. При расчете учитывается влияние влажности воздуха и скорости ветра на теплоощущения человека.
Tes - Эффективная температура на солнце - температура, которую ощущает человек, с поправкой на солнечный нагрев. Характеристика знойности погоды. Зависит от высоты солнца над горизонтом, облачности и скорости ветра. Ночью, в пасмурную погоду, а также при ветре 12 м/с и более поправка равна нулю.
P - Атмосферное давление - приведенное к уровню моря атмосферное давление.
Po - Атмосферное давление - измеренное на уровне метеостанции атмосферное давление.
Tmin - Минимальная температура - минимум температуры воздуха на высоте 2 м над землей.
Tmax - Максимальная температура - максимум температуры воздуха на высоте 2 м над землей.
R - Количество осадков - Количество выпавших осадков за период времени, мм. При наведении курсора мыши на число - период времени, за который выпало указанное количество осадков.
R24 - Количество осадков - Количество выпавших осадков за 24 часа, мм.
S - Снежный покров - Высота снежного покрова, см. При наведении курсора мыши на число - состояние снежного покрова и степень покрытия местности в баллах.